User: anonymous   Login
Location: Taukkyan
(23.1052°N, 94.0030°E)
Time: 10:07:40
(UTC+00:00)
Language:

DELTA 2 R/B (1) - Orbit

View from above orbital plane
View from above orbital plane
View from above satellite
View from above satellite

Ground track
Ground track

The orbit data is extracted from the following two-line orbital elements,

1 27665U 03005C   20272.12652740 -.00000131  00000-0 -18194-4 0  9998
2 27665  39.5750 125.0374 0008132 153.6599 355.4001 14.28532463922415
Epoch (UTC): 28 September 2020 03:02:11
Eccentricity: 0.0008132
inclination: 39.5750°
perigee height: 791 km
apogee height: 802 km
right ascension of ascending node: 125.0374°
argument of perigee: 153.6599°
revolutions per day: 14.28532463
mean anomaly at epoch: 355.4001°
orbit number at epoch: 92241

The dashed part of the orbit path shows where the satellite is in the earth's shadow,  

DLR